Skip Page Navigation
NASA JPL Caltech
NASA Logo - Jet Propulsion Laboratory + View the NASA Portal
+ Center for Near-Earth Object Studies
JPL Home Earth Solar System Stars & Galaxies Technology
JPL Solar System Dynamics
BODIES ORBITS EPHEMERIDES TOOLS PHYSICAL DATA DISCOVERY FAQ SITE MAP
IMPORTANT: The SSD Announcement email list is now available. Major changes are coming in the near future, including possible hostname and/or URL changes. To be notified of such changes, subscribe to this email list.

Please visit this page for more details.


JPL Small-Body Database Browser
Search: [ help ]  
410898 (2009 SX116)
Classification: Main-belt Asteroid          SPK-ID: 2410898
Ephemeris | Orbit Diagram | Orbital Elements | Mission Design | Physical Parameters | Discovery Circumstances | Close-Approach Data ]

[ show orbit diagram ]
Orbital Elements at Epoch 2458600.5 (2019-Apr-27.0) TDB
Reference: JPL 13 (heliocentric ecliptic J2000)
 Element Value Uncertainty (1-sigma)   Units 
e .03997982282891075 6.6849e-08  
a 3.079054697530545 6.6201e-08 au
q 2.955954636242748 2.0744e-07 au
i 4.618753913850445 8.7049e-06 deg
node 250.3642562931477 0.00010091 deg
peri 224.8130285381269 0.00015683 deg
M 178.8425663094258 0.00012105 deg
tp 2457620.123426195438
(2016-Aug-19.62342620)
0.00065695 TDB
period 1973.442753885607
5.40
6.3645e-05
1.743e-07
d
yr
n .1824223171871485 5.8833e-09 deg/d
Q 3.202154758818342 6.8848e-08 au
  Orbit Determination Parameters
   # obs. used (total)      94  
   data-arc span      5426 days (14.86 yr)  
   first obs. used      2004-10-13  
   last obs. used      2019-08-22  
   planetary ephem.      DE431  
   SB-pert. ephem.      SB431-N16  
   condition code      0  
   norm. resid. RMS      .58991  
   source      ORB  
   producer      Otto Matic  
   solution date      2019-Sep-24 07:24:44  

Additional Information
 Earth MOID = 1.97501 au 
 Jupiter MOID = 1.86998 au 
 T_jup = 3.222 
[ show covariance matrix ]

Ephemeris | Orbit Diagram | Orbital Elements | Mission Design | Physical Parameters | Discovery Circumstances | Close-Approach Data ]

Physical Parameter Table
Parameter Symbol Value Units Sigma Reference Notes
absolute magnitude H 16.3   n/a MPO450422  

410898 (2009 SX116)          Discovered 2009-Sep-18 by Spacewatch at Kitt Peak
Reference: Last Updated: 2014-10-09

[ show close-approach data ]
Ephemeris | Orbit Diagram | Orbital Elements | Mission Design | Physical Parameters | Discovery Circumstances | Close-Approach Data ]
ABOUT SSD CREDITS/AWARDS PRIVACY/COPYRIGHT GLOSSARY LINKS
FirstGov 2020-Jan-19 17:29 UT
(server date/time)  
NASA Home Page
Site Manager:   Ryan S. Park
Webmaster  Alan B. Chamberlin